Location: Boissi�res
(45.2500°N, 2.3667°E)
Time: 22:12:44
(UTC+00:00)

Tiangong - Pass Details

Date: 03 October 2021
Orbit: 382 x 385 km, 41.5° (Epoch: 19 October)

Event Time Altitude Azimuth Distance (km) Brightness Sun altitude
Exits shadow 03:29:57 18° 112° (ESE) 1,024 3.7 -25.2°
Drops below altitude 10° 03:30:58 10° 104° (ESE) 1,396 4.6 -25.1°
Sets 03:33:06 0° 96° (E) 2,248 6.0 -24.7°
